FW0314 Weather Reports


Display with metric or nautical units.
time (UTC)temp
F
wind
direction
speed
MPH
gust
MPH
rain 1hr
in
rain 24hr
in
rain mn
in
humidity
%
barometer
mb
20260505075505 56 159 1.0 4.0 0.00 0.00 0.00 84 1012.6
20260505075006 56 159 1.0 4.0 0.00 0.00 0.00 84 1012.6
20260505074531 56 159 1.0 4.0 0.00 0.00 0.00 84 1012.5
20260505074005 56 159 1.0 4.0 0.00 0.00 0.00 84 1012.5
20260505073505 56 159 0.0 4.0 0.00 0.00 0.00 83 1012.4
20260505073005 57 159 0.0 4.0 0.00 0.00 0.00 83 1012.4
20260505072505 57 159 1.0 4.0 0.00 0.00 0.00 83 1012.3
20260505072005 57 159 0.0 4.0 0.00 0.00 0.00 83 1012.3
20260505071505 57 159 1.0 4.0 0.00 0.00 0.00 82 1012.3
20260505071026 57 159 1.0 4.0 0.00 0.00 0.00 82 1012.3
20260505070505 57 168 1.0 3.0 0.00 0.00 0.00 82 1012.3
20260505070026 58 177 1.0 3.0 0.00 0.00 0.00 82 1012.3
20260505065505 58 184 1.0 3.0 0.00 0.00 0.00 82 1012.2
20260505065005 58 179 1.0 3.0 0.00 0.00 0.00 82 1012.1
20260505064505 58 27 1.0 2.0 0.00 0.00 0.00 81 1012.1
20260505064005 58 19 0.0 2.0 0.00 0.00 0.00 81 1011.9
20260505063505 58 19 0.0 1.0 0.00 0.00 0.00 80 1011.9
20260505063005 58 0 0.0 1.0 0.00 0.00 0.00 79 1011.9
20260505062505 58 19 0.0 2.0 0.00 0.00 0.00 79 1011.9
20260505062005 58 19 0.0 2.0 0.00 0.00 0.00 78 1011.8
20260505061505 58 19 0.0 2.0 0.00 0.00 0.00 78 1011.7
20260505061005 58 19 0.0 2.0 0.00 0.00 0.00 77 1011.6
20260505060526 58 19 0.0 2.0 0.00 0.00 0.00 77 1011.6
20260505060005 58 19 0.0 2.0 0.00 0.00 0.00 76 1011.5
20260505055506 58 19 0.0 2.0 0.00 0.00 0.00 76 1011.5
20260505055005 59 19 0.0 2.0 0.00 0.00 0.00 75 1011.3
20260505054505 59 19 0.0 2.0 0.00 0.00 0.00 75 1011.3
20260505054026 59 19 0.0 2.0 0.00 0.00 0.00 74 1011.4
20260505053505 59 0 0.0 0.0 0.00 0.00 0.00 74 1011.3
20260505053005 60 0 0.0 0.0 0.00 0.00 0.00 73 1011.3
20260505052505 60 0 0.0 1.0 0.00 0.00 0.00 73 1011.3
20260505052005 60 0 0.0 1.0 0.00 0.00 0.00 72 1011.3
20260505051505 60 0 0.0 1.0 0.00 0.00 0.00 72 1011.3
20260505051005 60 19 0.0 1.0 0.00 0.00 0.00 72 1011.2
20260505050526 60 19 0.0 2.0 0.00 0.00 0.00 71 1011.1
20260505041505 62 19 1.0 3.0 0.00 0.00 0.00 67 1010.7
20260505041025 62 19 0.0 3.0 0.00 0.00 0.00 67 1010.6
20260505040505 63 19 0.0 2.0 0.00 0.00 0.00 66 1010.5
20260505040025 63 19 0.0 2.0 0.00 0.00 0.00 66 1010.3
20260505035504 64 19 0.0 2.0 0.00 0.00 0.00 66 1010.4
20260505035005 64 19 0.0 2.0 0.00 0.00 0.00 65 1010.3
20260505034506 65 19 0.0 1.0 0.00 0.00 0.00 63 1010.3
20260505034005 66 19 1.0 1.0 0.00 0.00 0.00 62 1010.3
20260505033505 66 19 0.0 1.0 0.00 0.00 0.00 57 1010.1
20260505033004 67 19 0.0 1.0 0.00 0.00 0.00 54 1010.1
20260505032504 68 19 0.0 1.0 0.00 0.00 0.00 53 1010.1
20260505032025 68 0 0.0 1.0 0.00 0.00 0.00 53 1010.1
20260505031504 69 0 0.0 1.0 0.00 0.00 0.00 51 1010.0
20260505031005 69 0 0.0 3.0 0.00 0.00 0.00 50 1010.1
20260505030505 69 19 0.0 3.0 0.00 0.00 0.00 49 1009.9
20260505030005 69 19 0.0 3.0 0.00 0.00 0.00 49 1009.9
20260505025526 69 19 0.0 3.0 0.00 0.00 0.00 49 1009.8
20260505024504 70 19 0.0 2.0 0.00 0.00 0.00 48 1009.8
20260505024005 70 19 0.0 3.0 0.00 0.00 0.00 47 1009.8
20260505023526 70 19 0.0 3.0 0.00 0.00 0.00 48 1009.8
20260505023005 70 20 0.0 5.0 0.00 0.00 0.00 48 1009.9
20260505022505 70 27 1.0 5.0 0.00 0.00 0.00 47 1009.8
20260505022004 70 31 1.0 5.0 0.00 0.00 0.00 47 1009.9
20260505021505 70 37 1.0 5.0 0.00 0.00 0.00 47 1009.9
20260505021004 70 47 1.0 5.0 0.00 0.00 0.00 47 1009.9
20260505020505 70 48 2.0 5.0 0.00 0.00 0.00 47 1009.9
20260505020026 70 40 2.0 5.0 0.00 0.00 0.00 46 1009.9
20260505015526 70 34 1.0 5.0 0.00 0.00 0.00 48 1009.9
20260505015009 70 39 2.0 5.0 0.00 0.00 0.00 47 1009.9
20260505014505 70 40 2.0 7.0 0.00 0.00 0.00 47 1010.0
20260505014004 69 31 2.0 9.0 0.00 0.00 0.00 47 1010.1
20260505013505 69 29 2.0 10.0 0.00 0.00 0.00 47 1010.0
20260505013005 69 33 2.0 10.0 0.00 0.00 0.00 47 1010.0
20260505012504 69 36 3.0 10.0 0.00 0.00 0.00 47 1010.1
20260505012004 69 42 3.0 10.0 0.00 0.00 0.00 47 1010.1
20260505011504 69 42 3.0 10.0 0.00 0.00 0.00 48 1010.2
20260505011004 69 50 3.0 12.0 0.00 0.00 0.00 47 1010.2
20260505010525 69 43 3.0 12.0 0.00 0.00 0.00 48 1010.2
20260505010005 69 33 3.0 12.0 0.00 0.00 0.00 49 1010.2
20260505005505 69 35 4.0 12.0 0.00 0.00 0.00 48 1010.3
20260505005025 70 32 4.0 12.0 0.00 0.00 0.00 47 1010.3
20260505004525 70 36 3.0 10.0 0.00 0.00 0.00 47 1010.2
20260505004004 71 36 3.0 9.0 0.00 0.00 0.00 46 1010.3
20260505003504 71 27 3.0 7.0 0.00 0.00 0.00 45 1010.2
20260505003005 72 33 3.0 9.0 0.00 0.00 0.00 45 1010.2
20260505002504 72 32 3.0 9.0 0.00 0.00 0.00 45 1010.2
20260505002025 73 31 3.0 9.0 0.00 0.00 0.00 45 1010.1
20260505001504 74 43 2.0 9.0 0.00 0.00 0.00 44 1010.1
20260505001004 74 36 3.0 8.0 0.00 0.00 0.00 44 1010.1
20260505000505 75 31 3.0 7.0 0.00 0.00 0.00 44 1010.0
20260505000004 75 34 3.0 9.0 0.00 0.00 0.00 44 1009.9
20260504235504 75 35 3.0 9.0 0.00 0.00 0.00 44 1010.0
20260504235004 75 37 4.0 9.0 0.00 0.00 0.00 44 1010.0
20260504234504 76 36 4.0 9.0 0.00 0.00 0.00 42 1010.0
20260504234004 77 38 3.0 7.0 0.00 0.00 0.00 40 1010.0
20260504233525 78 37 2.0 5.0 0.00 0.00 0.00 40 1010.0
20260504233004 78 219 2.0 4.0 0.00 0.00 0.00 40 1010.0
20260504232504 79 213 1.0 4.0 0.00 0.00 0.00 39 1009.9
20260504232004 80 213 1.0 3.0 0.00 0.00 0.00 38 1010.0
20260504231504 81 213 1.0 3.0 0.00 0.00 0.00 36 1009.8
20260504231025 82 213 1.0 3.0 0.00 0.00 0.00 37 1010.0
20260504230504 81 213 1.0 3.0 0.00 0.00 0.00 37 1009.8
20260504230025 82 213 1.0 4.0 0.00 0.00 0.00 36 1009.8
20260504225504 82 213 1.0 4.0 0.00 0.00 0.00 36 1009.9
20260504225004 82 213 1.0 4.0 0.00 0.00 0.00 38 1010.1
20260504224504 82 216 1.0 6.0 0.00 0.00 0.00 37 1010.1
20260504224004 82 227 1.0 6.0 0.00 0.00 0.00 36 1010.1
20260504223504 82 244 1.0 6.0 0.00 0.00 0.00 38 1010.1
20260504223004 81 268 1.0 6.0 0.00 0.00 0.00 38 1010.1
20260504222504 80 294 1.0 6.0 0.00 0.00 0.00 40 1010.2
20260504222004 80 299 2.0 4.0 0.00 0.00 0.00 40 1010.2
20260504221504 79 303 2.0 4.0 0.00 0.00 0.00 41 1010.3
20260504221004 79 309 2.0 4.0 0.00 0.00 0.00 40 1010.5
20260504220504 78 309 2.0 4.0 0.00 0.00 0.00 41 1010.6
20260504220004 78 287 2.0 4.0 0.00 0.00 0.00 41 1010.6
20260504215504 78 218 2.0 4.0 0.00 0.00 0.00 41 1010.7
20260504215004 78 207 2.0 5.0 0.00 0.00 0.00 42 1010.7
20260504214504 78 289 2.0 5.0 0.00 0.00 0.00 41 1010.7
20260504214004 78 354 2.0 5.0 0.00 0.00 0.00 42 1010.7
20260504213504 78 51 2.0 5.0 0.00 0.00 0.00 41 1010.7
20260504213004 77 44 2.0 5.0 0.00 0.00 0.00 41 1010.8
20260504212504 77 345 2.0 6.0 0.00 0.00 0.00 42 1010.8
20260504212004 77 314 2.0 6.0 0.00 0.00 0.00 42 1010.8
20260504211525 77 302 2.0 6.0 0.00 0.00 0.00 43 1010.8
20260504211025 78 305 2.0 7.0 0.00 0.00 0.00 43 1010.9
20260504210504 78 232 2.0 7.0 0.00 0.00 0.00 44 1010.8
20260504210025 78 238 1.0 7.0 0.00 0.00 0.00 43 1010.9
20260504205525 77 248 2.0 7.0 0.00 0.00 0.00 42 1011.0
20260504205004 77 271 2.0 7.0 0.00 0.00 0.00 43 1010.9
20260504204505 77 37 1.0 4.0 0.00 0.00 0.00 44 1010.9
20260504204004 76 35 1.0 4.0 0.00 0.00 0.00 45 1011.0
20260504203525 76 35 1.0 3.0 0.00 0.00 0.00 46 1010.9
20260504203025 76 35 1.0 4.0 0.00 0.00 0.00 44 1011.0
20260504202504 76 35 1.0 4.0 0.00 0.00 0.00 47 1011.0
20260504202004 75 35 1.0 4.0 0.00 0.00 0.00 45 1011.1
20260504201504 75 35 2.0 4.0 0.00 0.00 0.00 45 1011.0
20260504201004 75 35 2.0 4.0 0.00 0.00 0.00 45 1011.2
20260504200504 75 35 2.0 4.0 0.00 0.00 0.00 45 1011.1
20260504200005 74 35 2.0 4.0 0.00 0.00 0.00 47 1011.1
20260504195504 75 35 2.0 4.0 0.00 0.00 0.00 43 1011.0
20260504195004 75 35 2.0 4.0 0.00 0.00 0.00 43 1011.1
20260504194504 75 35 2.0 3.0 0.00 0.00 0.00 45 1011.0
20260504194004 75 35 2.0 3.0 0.00 0.00 0.00 46 1010.9
20260504193504 74 35 2.0 3.0 0.00 0.00 0.00 44 1011.0
20260504193004 74 35 2.0 3.0 0.00 0.00 0.00 44 1010.9
20260504192525 74 35 2.0 3.0 0.00 0.00 0.00 44 1011.0
20260504192004 74 35 2.0 3.0 0.00 0.00 0.00 44 1011.0
20260504191504 74 35 2.0 3.0 0.00 0.00 0.00 44 1011.1
20260504191004 74 35 1.0 3.0 0.00 0.00 0.00 45 1011.2
20260504190504 73 35 1.0 3.0 0.00 0.00 0.00 46 1011.2
20260504190004 73 35 1.0 3.0 0.00 0.00 0.00 45 1011.3
20260504185525 73 35 1.0 3.0 0.00 0.00 0.00 47 1011.2
20260504185025 72 35 2.0 3.0 0.00 0.00 0.00 45 1011.4
20260504184525 72 35 2.0 3.0 0.00 0.00 0.00 46 1011.3
20260504184004 72 35 1.0 3.0 0.00 0.00 0.00 44 1011.3
20260504183504 72 35 1.0 2.0 0.00 0.00 0.00 45 1011.4
20260504183004 72 35 1.0 2.0 0.00 0.00 0.00 47 1011.4
20260504182504 71 35 1.0 2.0 0.00 0.00 0.00 45 1011.4
20260504182004 71 35 1.0 2.0 0.00 0.00 0.00 48 1011.3
20260504181504 71 35 1.0 2.0 0.00 0.00 0.00 46 1011.3
20260504181004 71 35 1.0 2.0 0.00 0.00 0.00 47 1011.3
20260504180503 71 35 1.0 2.0 0.00 0.00 0.00 48 1011.3
20260504180025 71 35 1.0 2.0 0.00 0.00 0.00 48 1011.3
20260504175504 70 35 1.0 2.0 0.00 0.00 0.00 50 1011.4
20260504175004 70 35 1.0 2.0 0.00 0.00 0.00 51 1011.2
20260504174525 70 35 1.0 4.0 0.00 0.00 0.00 52 1011.3
20260504174004 69 35 1.0 4.0 0.00 0.00 0.00 48 1011.4
20260504173503 69 35 1.0 4.0 0.00 0.00 0.00 49 1011.3
20260504173004 68 35 2.0 4.0 0.00 0.00 0.00 50 1011.4
20260504172524 68 35 2.0 5.0 0.00 0.00 0.00 51 1011.5
20260504172004 69 35 2.0 6.0 0.00 0.00 0.00 48 1011.5
20260504171525 69 35 1.0 6.0 0.00 0.00 0.00 50 1011.4
20260504171004 69 36 2.0 6.0 0.00 0.00 0.00 51 1011.4
20260504170504 69 36 2.0 6.0 0.00 0.00 0.00 51 1011.4
20260504151003 59 263 0.0 1.0 0.00 0.00 0.00 71 1010.8
20260504150503 59 263 0.0 1.0 0.00 0.00 0.00 72 1010.8
20260504141003 55 0 0.0 0.0 0.00 0.00 0.00 77 1010.5
20260504140503 55 0 0.0 0.0 0.00 0.00 0.00 76 1010.5
20260504130503 53 263 0.0 2.0 0.00 0.00 0.00 73 1010.1
20260504110503 56 35 0.0 1.0 0.00 0.00 0.00 62 1010.1
20260504100503 57 0 0.0 1.0 0.00 0.00 0.00 62 1010.0
20260504082005 60 35 0.0 2.0 0.00 0.00 0.00 53 1009.9
20260504081505 61 35 0.0 2.0 0.00 0.00 0.00 52 1009.8
20260504081047 61 35 0.0 2.0 0.00 0.00 0.00 50 1009.9
20260504080505 62 0 0.0 0.0 0.00 0.00 0.00 50 1009.9